counter statistics

Jackpot

Texas Poker Multi Jackpot System

Kini Telah hadir Jackpot SUPER ROYAL FLUSH

Kini Telah hadir Jackpot 2000 (khusus table VIP keatas).

Ikutilah global jackpot yang tersedia di system kami, dengan system jackpot terbaru dan pertama di indonesia, anda dapat membeli jackpot dengan harga 100 rupiah saja dan menangkan hadiahnya hingga puluhan juta rupiah.

Jackpot bukanlah suatu keharusan untuk dibeli, namun kami memberikan suatu fitur tambahan untuk member tercinta dari www.lahan.poker.

Terdapat tiga pilihan harga jackpot yang bisa anda beli yaitu :100,500,1000 dan 2000(khusus table VIP Keatas) rupiah.

Hadiah dari Multi jackpot system www.lahan.poker

  1. full house x 10 harga jackpot yang anda beli.
      (contoh:anda membeli 1000 maka:1000 X10 = 10.000)
  2. four of kind x 250 harga jackpot yang anda beli
      (contoh:anda membeli 1000 maka:1000 X250 = 250.000)
  3. Straight flush x 1200
      (contoh:anda membeli 1000 maka:1000 X1200 = 1.200.000)
  4. Royal flush x 10000 harga jackpot yang anda beli
      (contoh:anda membeli 1000 maka:1000 X10000 = 10.000.000)
  5. SUPER ROYAL FLUSH x 30000 harga jackpot yang anda beli
      (contoh:anda membeli 1000 maka:1000 X30000 = 30.000.000)

Kondisi kartu

  1. full house adalah kondisi kartu dimana kartu anda dan kartu tengah dengan total 7 kartu bisa mendapatkan nilai 5 kartu dengan kombinasi 1 tris(three of kind) dan 1 pair, contoh 3 kartu 10 dan 2 kartu 5
  2. Four of kind adalah kondisi kartu dimana kartu anda dan kartu tengah dengan total 7 kartu bisa mendapatkan nilai 5 kartu dengan kombinasi 4 kartu yang sama jumlah dan 1 kartu apapun juga contoh anda mendapatkan 4 buah kartu angka 3 dan 1 kartu apapun.
  3. Staright flush adalah kondisi kartu dimana kartu anda dan kartu tengah dengan total 7 kartu bisa mendapatkan nilai 5 kartu dengan kombinasi seri / staright dengan kembang yang sama contoh : urutan kartu dari angka 5, 6, 7, 8 , 9 10 dengan kembang yg sama misalnya as hati
  4. Royal flush adalah kondisi kartu dimana kartu anda dan kartu tengah dengan total 7 kartu bisa mendapatkan nilai 5 kartu dengan kombinasi seri / staright dengan kembang yang sama tetapi kartu tersebut haruslah dimulai dari 10. contoh 10, Queen, Jack, King dan aces dengan kembang yang sama
  5. Super Royal flush adalah kondisi kartu dimana Kedua kartu anda digabung dengan 3 kartu pertama meja haruslah royal flush. contoh kartu anda 10,Queen kembang sama dan 3 kartu pertama meja adalah Jack, King dan aces dengan kembang yang sama

Demikian adalah penjelasan dari Multi Jackpot www.lahan.poker terima kasih dan selamat bermain salam hoki dari kami

Texas Poker Jackpot Winner

TOP SUPER ROYAL FLUSH
No.TanggalNamaPriceWin
120/08 03:13MFF15Super Royal flush3,000,000
220/08 02:38USER9324Super Royal flush6,000,000
320/08 00:47L0H4Y11Super Royal flush15,000,000
419/08 21:26IBOTKERS1Super Royal flush6,000,000
519/08 21:07APUY62Super Royal flush30,000,000
TOP ROYAL FLUSH
No.TanggalNamaPriceWin
120/08 04:30T8M2PGZHEZRoyal flush2,000,000
220/08 04:29M15J4R14HRoyal flush1,000,000
320/08 04:18BABYCIUNRoyal flush5,000,000
420/08 04:05CHEVROLRoyal flush1,000,000
520/08 04:03BENT0O16Royal flush2,000,000
TOP STRAIGHT FLUSH
No.TanggalNamaPriceWin
120/08 06:00KMLCR64QUUStraight Flush600,000
220/08 06:00NAGAGENIStraight Flush60,000
320/08 05:56FNYMBPQGEZStraight Flush1,200,000
420/08 05:50HAMS24Straight Flush240,000
520/08 05:48OOKEESStraight Flush600,000
LATEST JACKPOT
No.TanggalNamaPriceWin
120/08 06:00JALUKMDN77Full House2,000
220/08 06:00GS2C07Full House5,000
320/08 06:00JONINGENG1Full House2,000
420/08 06:00JOYMEFull House10,000
520/08 06:00N0M0R21Full House5,000
620/08 06:00JABLUT7Full House1,000
720/08 06:00MAZTBROFull House5,000
820/08 06:00HDS123Full House2,000
920/08 06:00IZPKE5UOYJFull House5,000
1020/08 06:00GUEST85Full House2,000
1120/08 06:00BOSI7777Full House10,000
1220/08 06:00KMLCR64QUUStraight Flush600,000
1320/08 06:00YASER111Full House2,000
1420/08 06:00NAGAGENIStraight Flush60,000
1520/08 06:00AFRIANSFull House1,000
1620/08 06:00BR1983Full House10,000
1720/08 06:00OMBL0K99Full House2,000
1820/08 05:59JONDJANBFull House5,000
1920/08 05:59AT4DSHAME6500Full House2,000
2020/08 05:59BOKEKBOS87Full House2,000
2120/08 05:59PCK4ARILUNYU96Full House2,000
2220/08 05:59VEFHGYZYHVFull House20,000
2320/08 05:59D620836EFull House2,000
2420/08 05:59DINOKFull House2,000
2520/08 05:59ZOLLA06Four Of A Kind125,000
2620/08 05:59RANTING01Full House10,000
2720/08 05:59BENSIN46Full House5,000
2820/08 05:59FUKUROKU57Full House20,000
2920/08 05:59NINAJFull House2,000
3020/08 05:59GRS07Full House10,000
3120/08 05:59R4J4777Full House1,000
3220/08 05:59BTX1991Full House2,000
3320/08 05:59T4D0012163Full House10,000
3420/08 05:59DWBT00014Full House1,000
3520/08 05:59D33A27AAFull House1,000
3620/08 05:59REN00Full House2,000
3720/08 05:59IDONTA88Full House5,000
3820/08 05:58BHULE212Full House1,000
3920/08 05:58JIGGIE78Full House10,000
4020/08 05:58OPKAH11Full House10,000
4120/08 05:58ROY212Full House1,000
4220/08 05:58COTTA99Full House2,000
4320/08 05:58LUCKYANDREFull House20,000
4420/08 05:58TEMPETAHU9Full House10,000
4520/08 05:58TARKITFull House10,000
4620/08 05:58DOTJPFull House2,000
4720/08 05:58HP__LOVEFull House1,000
4820/08 05:58H0KY_11Full House2,000
4920/08 05:58T988PALALUFull House500
5020/08 05:58ROMUSA22Full House2,000

Domino Multi Jackpot System

Ikutilah global jackpot yang tersedia di system kami, dengan system jackpot terbaru dan pertama di indonesia, anda dapat membeli jackpot dengan harga 100 rupiah saja dan menangkan hadiahnya hingga puluhan juta rupiah.

Jackpot bukanlah suatu keharusan untuk dibeli, namun kami memberikan suatu fitur tambahan untuk member tercinta dari www.lahan.poker.

Terdapat tiga pilihan harga jackpot yang bisa anda beli yaitu :100,500 dan 1000 rupiah.

Hadiah dari Multi jackpot system www.lahan.poker

  1. Murni Kecil x 50 harga jackpot yang anda beli.
      (contoh:anda membeli 1000 maka:1000 X 50 = 50.000)
  2. Murni Besar x 50 harga jackpot yang anda beli
      (contoh:anda membeli 1000 maka:1000 X 50 = 50.000)
  3. BALAK x 100 harga jackpot yang anda beli
      (contoh:anda membeli 1000 maka:1000 X 100 = 100.000)
  4. ENAM DEWA x 6666 harga jackpot yang anda beli
      (contoh:anda membeli 1000 maka:1000 X 6666 = 6.666.000)

Demikian adalah penjelasan dari Multi Jackpot www.lahan.poker terima kasih dan selamat bermain salam hoki dari kami

Domino Jackpot Winner

TOP ENAM DEWA
No.TanggalNamaPriceWin
120/08 05:23GOD_LOVERSmurni enam3,333,000
220/08 02:37LICIN99murni enam6,666,000
320/08 02:17BP888911murni enam6,666,000
420/08 00:44NAGA_BNImurni enam666,600
520/08 00:28PHENCHOR76murni enam3,333,000
TOP BALAK
No.TanggalNamaPriceWin
120/08 05:59JHONADAM12balak10,000
220/08 05:53SAIDE9999balak100,000
320/08 05:52ARGIYAK1balak100,000
420/08 05:43GIO07balak100,000
520/08 05:35LANTAK2Xbalak100,000
LATEST JACKPOT
No.TanggalNamaPriceWin
120/08 06:00ARGIYAK1murni kecil50,000
220/08 05:59JHONADAM12balak10,000
320/08 05:56MARYANTO70murni kecil50,000
420/08 05:54527KTmurni besar50,000
520/08 05:53BABAT200murni kecil5,000
620/08 05:53NCVmurni kecil50,000
720/08 05:53SAIDE9999balak100,000
820/08 05:52ARGIYAK1balak100,000
920/08 05:49KINANTI07murni kecil50,000
1020/08 05:47NELSIAmurni kecil50,000
1120/08 05:47KINGKOJEKmurni kecil5,000
1220/08 05:46ROG4S88murni besar25,000
1320/08 05:46TEDY69murni besar25,000
1420/08 05:45IKARmurni besar5,000
1520/08 05:45ZAY9murni kecil50,000
1620/08 05:44BM512TUmurni besar50,000
1720/08 05:43E101E41Fmurni besar50,000
1820/08 05:43MDS1407murni besar50,000
1920/08 05:43GZAEN68264lucky992,500
2020/08 05:43GIO07balak100,000
2120/08 05:43MENAIBEH99murni kecil50,000
2220/08 05:40SUCCES24murni kecil5,000
2320/08 05:40JPH0KIBOSSmurni kecil50,000
2420/08 05:39MREZA8880murni kecil50,000
2520/08 05:39OGOAN123murni kecil50,000
2620/08 05:38CICURUT303murni besar50,000
2720/08 05:38EXSISmurni besar5,000
2820/08 05:38BEL1NKmurni kecil50,000
2920/08 05:36DINO770murni besar50,000
3020/08 05:36XONOX77murni besar50,000
3120/08 05:35LENITIAmurni kecil25,000
3220/08 05:35LANTAK2Xbalak100,000
3320/08 05:34BC00F742balak100,000
3420/08 05:34KEYEUP_AUmurni besar5,000
3520/08 05:34ANJAS18murni besar50,000
3620/08 05:33SIAPGERAK9lucky9925,000
3720/08 05:33KUB026murni kecil50,000
3820/08 05:32GONG2Xmurni besar25,000
3920/08 05:32OBOT44murni besar5,000
4020/08 05:31BP888911murni besar50,000
4120/08 05:28PENCES3999balak100,000
4220/08 05:27DOGERRRmurni besar5,000
4320/08 05:27Z10ND4murni besar5,000
4420/08 05:27PEYEK70lucky992,500
4520/08 05:26KKKKMMMMMUmurni besar5,000
4620/08 05:25SOULJAH_99murni kecil25,000
4720/08 05:24THOM420murni kecil50,000
4820/08 05:23GOD_LOVERSmurni enam3,333,000
4920/08 05:22WAHYONO263balak100,000
5020/08 05:22OMOM1111lucky992,500

Ceme Multi Jackpot System

Jackpot dilihat dari gabungan kartu pemain dengan kartu bandar. Bandar harus membeli jackpot sebanyak jumlah player yang sedang duduk. Sebagai contoh bila terdapat 3 pemain duduk bermain, dan bandar memutuskan untuk membeli jackpot Rp 1.000, maka pada periode tersebut bandar akan membeli jackpot sebanyak 3xRp1.000 = Rp3.000.

Jackpot bukanlah suatu keharusan untuk dibeli, namun kami memberikan suatu fitur tambahan untuk member tercinta dari www.lahan.poker.

Terdapat tiga pilihan harga jackpot yang bisa anda beli yaitu :100,500 dan 1000 rupiah.

Hadiah dari Multi jackpot system www.lahan.poker

  1. Murni Kecil x 50 harga jackpot yang anda beli.
      (contoh:anda membeli 1000 maka:1000 X 50 = 50.000)
  2. Murni Besar x 50 harga jackpot yang anda beli
      (contoh:anda membeli 1000 maka:1000 X 50 = 50.000)
  3. BALAK x 200 harga jackpot yang anda beli
      (contoh:anda membeli 1000 maka:1000 X 200 = 200.000)
  4. ENAM DEWA x 6666 harga jackpot yang anda beli
      (contoh:anda membeli 1000 maka:1000 X 6666 = 6.666.000)

Demikian adalah penjelasan dari Multi Jackpot www.lahan.poker terima kasih dan selamat bermain salam hoki dari kami

Ceme Jackpot Winner

TOP ENAM DEWA
No.TanggalNamaPriceWin
120/08 05:56M_D_Mmurni enam666,600
220/08 05:40ANGGAJJmurni enam666,600
320/08 04:48KODOKIJO22murni enam6,666,000
420/08 04:48BANK324murni enam6,666,000
520/08 04:07KOCLAK85murni enam666,600
TOP BALAK
No.TanggalNamaPriceWin
120/08 06:00MANISE303balak200,000
220/08 06:00LUCKY99Xbalak20,000
320/08 05:59SUER22balak100,000
420/08 05:59RENDA24balak20,000
520/08 05:59NGUYENVIETbalak200,000
LATEST JACKPOT
No.TanggalNamaPriceWin
120/08 06:00DINO1509murni kecil50,000
220/08 06:00RYN14murni kecil50,000
320/08 06:00AGUSSALIM1murni kecil5,000
420/08 06:00HAMI1212murni besar50,000
520/08 06:00NBVOHHDM92murni besar50,000
620/08 06:00MANISE303balak200,000
720/08 06:00LUCKY99Xbalak20,000
820/08 05:59REGARD47murni besar25,000
920/08 05:59SUER22balak100,000
1020/08 05:59BIKINIRImurni besar50,000
1120/08 05:59NOVALBOYmurni besar25,000
1220/08 05:59DIK20murni besar50,000
1320/08 05:59JAKARIA45murni besar50,000
1420/08 05:59RENDA24balak20,000
1520/08 05:59SEQUIS22murni kecil50,000
1620/08 05:59CUPRET25murni kecil25,000
1720/08 05:59NGUYENVIETbalak200,000
1820/08 05:58RYN14murni kecil50,000
1920/08 05:58BOBYTYOmurni besar50,000
2020/08 05:58A77ARISmurni kecil50,000
2120/08 05:57REGARD47murni kecil25,000
2220/08 05:57T988RSD123murni kecil50,000
2320/08 05:57DEVALO22balak200,000
2420/08 05:57ABAAH99balak200,000
2520/08 05:57ADELL94murni kecil50,000
2620/08 05:57BRAWI99murni kecil50,000
2720/08 05:57DOMBA71murni kecil5,000
2820/08 05:57MOVMRKZ61Lmurni kecil50,000
2920/08 05:56BIGGBO99murni besar25,000
3020/08 05:56OSAS1998murni kecil5,000
3120/08 05:56M_D_Mmurni enam666,600
3220/08 05:56HU1J8UKSMImurni besar50,000
3320/08 05:56CICAK6789murni besar50,000
3420/08 05:55PONK444balak100,000
3520/08 05:55COFFE86murni kecil25,000
3620/08 05:55ZEIN30murni kecil5,000
3720/08 05:55ALPA72balak200,000
3820/08 05:55ACENK2527balak20,000
3920/08 05:54DJAROT766murni besar50,000
4020/08 05:54LADOKP01murni besar50,000
4120/08 05:54SUCEKI17balak200,000
4220/08 05:54B0R4999murni besar50,000
4320/08 05:54A77ARISmurni kecil50,000
4420/08 05:54DOLAR30XXXmurni besar50,000
4520/08 05:54SIMANIS9murni besar50,000
4620/08 05:54BS4CU1Ibalak200,000
4720/08 05:53XSVNSD68UMmurni kecil50,000
4820/08 05:53YUSTO888murni kecil50,000
4920/08 05:53MUTE23murni kecil25,000
5020/08 05:53SWONIECH22murni besar25,000